Regional Weather Roundup
Issued by NWS

Home | Current Version | Previous Version | Text Only | Print | Product List | Glossary Off
Versions: 1 2 3 4 5 6 7 8 9 10 11 12 13 14 15 16 17 18 19 20 21 22 23 24 25 26 27 28 29 30 31 32 33 34 35 36 37 38 39 40 41 42 43 44 45 46 47 48 49 50

758
ASUS45 KCYS 290010
RWRWY

WYOMING REGIONAL WEATHER ROUNDUP
NATIONAL WEATHER SERVICE CHEYENNE WY
600 PM MDT THU JUL 28 2016

NOTE:  "FAIR" INDICATES FEW OR NO CLOUDS BELOW 12,000 FEET
WITH NO SIGNIFICANT WEATHER AND/OR OBSTRUCTIONS TO VISIBILITY.

WYZ001-290100-
YELLOWSTONE NATIONAL PARK

CITY           SKY/WX    TMP DP  RH WIND       PRES   REMARKS
LK YELLOWSTONE   N/A     74  31  20 VRB6      30.35S
6HR MIN TEMP:  67; 6HR MAX TEMP:  77;

W YELLOWSTONE  NOT AVBL

$$
WYZ002>013-054>058-071-098>099-290100-
NORTHERN WYOMING

CITY           SKY/WX    TMP DP  RH WIND       PRES   REMARKS
JACKSON        SUNNY     82  30  15 NW6       30.22F
CODY           FAIR      75  48  38 N9        30.19S
GREYBULL       FAIR      87  43  21 NW18      30.07F
6HR MIN TEMP:  75; 6HR MAX TEMP:  87;

WORLAND        FAIR      85  44  23 NE9       30.10S
6HR MIN TEMP:  74; 6HR MAX TEMP:  86;

SHERIDAN       FAIR      82  46  28 N10       30.15R
6HR MIN TEMP:  74; 6HR MAX TEMP:  84;

BUFFALO        FAIR      78  48  34 N15       30.21R
6HR MIN TEMP:  70; 6HR MAX TEMP:  79;

GILLETTE       FAIR      77  52  41 N13       30.17R
6HR MIN TEMP:  68; 6HR MAX TEMP:  78;

HULETT         FAIR      75  52  43 N8        30.18S
NEWCASTLE      FAIR      73  52  46 NW13      30.17S

$$
WYZ014>020-022>026-101>103-290100-
CENTRAL WYOMING

CITY           SKY/WX    TMP DP  RH WIND       PRES   REMARKS
BIG PINEY      FAIR      86  27  11 N18G28    30.25S
6HR MIN TEMP:  78; 6HR MAX TEMP:  88;

PINEDALE       FAIR      82  27  13 NW13G18   30.26S
DUBOIS         FAIR      75  37  25 SE10G18   30.26R
LANDER         FAIR      82  44  26 NE8       30.15R
6HR MIN TEMP:  75; 6HR MAX TEMP:  86;

RIVERTON       FAIR      81  45  28 NE12      30.16S
6HR MIN TEMP:  73; 6HR MAX TEMP:  85;

CASPER         FAIR      82  45  27 NE14      30.17S
6HR MIN TEMP:  73; 6HR MAX TEMP:  83;

DOUGLAS          N/A    N/A N/A N/A MISG      30.18S

$$
WYZ021-027>030-104>119-290100-
SOUTHERN WYOMING

CITY           SKY/WX    TMP DP  RH WIND       PRES   REMARKS
EVANSTON       FAIR      87  28  12 NW17      30.28S
6HR MIN TEMP:  83; 6HR MAX TEMP:  91;

KEMMERER         N/A     82  19   9 NW20G31   30.28S
FORT BRIDGER   FAIR      88  25  10 NW25G33   30.28S
ROCK SPRINGS   FAIR      88  17   7 NW24G32   30.19S
6HR MIN TEMP:  78; 6HR MAX TEMP:  91;

DIXON          FAIR      91  29  11 W10G22    30.19F
RAWLINS        FAIR      82  45  27 NE15G22   30.21S
6HR MIN TEMP:  73; 6HR MAX TEMP:  89;

SARATOGA       FAIR      81  34  18 N8G17     30.24S
LARAMIE        LGT RAIN  68  55  63 SE14G26   30.31R
6HR MIN TEMP:  68; 6HR MAX TEMP:  81; 6HR PCP: TRACE;

CHEYENNE       FAIR      68  57  68 SE6       30.25F
6HR MIN TEMP:  64; 6HR MAX TEMP:  76; 6HR PCP:  0.04;

TORRINGTON     FAIR      80  50  34 VRB3      30.13S
6HR MIN TEMP:  70; 6HR MAX TEMP:  81;

PINE BLUFFS    FAIR      72  54  53 E8        30.21R

$$




USA.gov is the U.S. government's official web portal to all federal, state and local government web resources and services.